Lid_Strength_Index
5 6 6 6 7 7 7 7 7 7 6 7 7 7 8 8 8 10 11 10 12 14 14 13 12 13 13 13 15 13 13 11 10 11 12 12 13 11 12 11 13 14 14 15 14 16 17 7 8 12 8 6 6 6
3 4 5 6 6 6 7 7 7 7 6 6 7 7 7 8 8 9 11 10 10 13 13 11 11 10 11 10 12 11 12 11 9 9 10 10 11 11 12 14 9 13 11 13 12 12 7 6 7 5 5 7 6 6
3 3 4 5 5 6 6 6 7 7 6 6 6 7 7 7 8 8 10 10 11 13 14 14 13 10 9 8 8 12 10 9 8 5 9 10 12 10 13 12 11 9 8 10 11 9 8 7 6 5 5 6 5 5
3 3 4 4 4 5 6 6 6 7 6 6 6 6 7 7 7 8 10 10 10 13 16 14 10 10 8 8 8 8 8 6 6 6 9 10 11 8 10 10 11 9 9 10 10 8 8 7 6 5 5 5 5 4
3 2 3 3 3 4 5 6 6 7 6 5 6 6 7 7 7 7 9 10 9 13 16 14 11 9 8 8 8 8 8 8 9 9 9 11 9 9 9 10 11 9 11 12 12 9 9 8 6 5 5 6 6 7
2 2 3 3 3 4 5 6 6 7 6 5 5 6 7 7 7 10 13 10 9 10 14 16 10 10 8 8 8 8 8 9 9 10 9 8 7 9 11 12 9 9 8 8 10 7 7 6 5 5 6 7 7 8
2 2 3 3 4 5 5 6 6 6 6 5 6 7 7 7 8 12 14 10 9 9 13 15 13 9 9 8 7 7 7 7 9 9 9 8 8 8 11 13 10 9 9 8 6 5 7 6 7 6 7 8 9 9
2 3 3 4 4 5 6 6 6 6 5 7 8 8 7 7 7 10 9 8 8 10 11 14 13 11 8 9 9 5 7 7 8 8 8 9 9 9 12 10 10 10 9 8 7 5 6 6 6 7 8 10 11 10
3 3 3 4 4 5 6 6 7 6 7 8 9 7 7 9 10 10 7 7 8 10 13 13 15 14 9 9 8 7 5 9 6 9 9 9 10 13 11 12 11 10 10 9 7 6 7 8 8 10 11 11 11 11
3 3 4 4 4 5 5 6 6 7 8 9 9 9 11 10 7 6 8 11 12 11 10 13 11 13 10 10 10 9 7 9 11 10 9 10 11 10 10 10 10 9 8 8 9 8 9 9 11 11 11 10 11 11
4 4 4 4 5 5 5 6 6 8 9 10 13 12 11 8 10 12 14 13 13 14 11 11 11 12 9 12 11 8 10 9 13 11 11 12 12 12 10 10 9 9 8 8 8 6 8 9 10 10 10 10 11 11
4 4 4 5 5 5 6 6 7 9 11 11 11 9 10 11 13 15 15 13 14 14 11 12 11 10 9 9 10 7 10 10 14 9 11 13 11 11 10 10 10 9 9 8 8 7 8 10 11 11 11 11 11 11
4 4 4 5 5 6 6 7 8 8 8 9 11 12 13 13 16 16 17 15 15 12 11 10 12 11 10 9 9 10 12 13 9 11 13 12 11 10 10 10 10 9 8 8 8 7 9 10 10 11 11 11 10 10
4 4 5 5 6 5 6 7 8 8 9 11 12 16 15 16 14 13 14 14 12 12 11 12 12 11 10 11 9 12 10 10 14 16 15 11 11 11 10 10 10 10 9 8 8 8 9 10 11 12 11 11 11 12
5 5 5 5 5 6 7 7 8 8 11 12 12 16 15 12 13 13 13 12 11 11 11 12 10 10 12 11 12 12 13 16 15 16 13 12 11 11 11 10 10 10 9 8 8 9 10 10 10 10 11 11 12 13
5 5 6 5 6 7 7 8 9 9 10 12 12 14 13 14 14 13 13 12 10 10 10 10 12 13 14 13 14 16 16 17 14 13 11 11 11 11 10 10 10 9 9 9 8 9 10 10 10 10 10 11 12 13
7 8 6 7 7 7 8 9 10 11 12 13 14 12 13 13 12 12 11 11 10 11 12 11 15 15 12 14 16 13 14 13 12 11 11 11 11 11 10 9 9 9 9 8 7 9 10 10 10 10 12 11 12 12
8 6 7 7 8 9 10 10 10 11 14 12 13 13 12 12 11 11 10 10 10 11 11 13 12 15 15 16 14 12 11 10 10 10 10 10 10 9 9 9 9 9 9 8 7 7 9 10 11 11 11 11 12 13
7 7 7 8 9 10 12 11 10 13 12 12 12 11 10 11 11 11 11 11 10 10 11 12 14 14 14 12 12 11 10 10 11 10 9 9 9 9 9 9 9 9 9 9 8 8 8 9 10 10 10 11 12 13
7 7 7 8 8 10 12 11 9 12 13 12 11 11 11 11 11 11 11 11 11 11 13 14 14 12 11 11 10 9 9 10 10 11 10 10 9 8 9 9 9 9 9 9 9 9 7 8 9 10 10 11 12 13
8 8 8 9 10 11 11 11 12 11 11 12 11 11 13 11 12 12 13 12 12 13 14 12 11 10 9 9 8 9 10 10 9 10 10 10 9 10 9 9 9 9 10 10 11 10 9 8 7 8 9 11 12 12
9 8 10 10 11 11 12 10 11 11 12 11 11 11 12 13 13 13 12 13 13 12 12 11 11 10 9 10 10 10 10 10 9 8 8 8 10 10 10 10 10 10 10 11 11 10 9 8 6 6 8 10 11 12
8 9 11 11 12 12 12 10 13 12 13 12 11 12 13 13 12 11 13 13 12 11 11 10 9 9 9 9 10 11 11 11 9 9 9 9 8 9 10 10 10 10 11 11 11 10 9 9 8 6 7 9 10 11
8 11 13 13 12 14 11 13 12 12 12 13 12 13 13 13 12 12 14 13 12 11 11 10 9 10 9 9 10 11 12 11 11 9 9 10 9 10 10 10 10 9 10 11 11 11 10 9 9 7 6 8 10 11
14 14 13 15 12 13 14 14 13 13 14 13 13 13 13 12 13 14 13 13 13 12 11 10 10 9 10 9 10 11 11 11 11 11 10 10 10 9 10 10 9 9 9 11 12 11 11 10 10 9 7 8 9 10
16 14 14 13 13 14 14 15 14 13 13 14 12 11 11 12 14 14 12 12 12 11 10 10 10 10 10 9 10 10 11 11 11 10 10 10 10 10 11 11 11 10 9 11 11 11 11 11 11 10 8 8 11 10
17 15 13 11 11 12 12 11 11 12 13 14 12 13 12 15 14 11 12 12 11 10 9 8 8 8 9 11 11 10 10 10 10 10 9 9 9 9 10 11 12 11 10 10 10 11 12 12 12 11 10 7 7 8
13 13 15 13 12 11 13 13 13 13 12 11 11 13 13 13 12 12 11 10 9 9 9 8 8 8 10 10 11 10 10 10 10 10 9 9 9 9 10 9 9 11 10 10 10 10 10 11 12 12 12 10 7 8
14 12 12 14 13 12 12 12 12 11 10 10 12 13 13 12 12 11 11 9 8 9 10 10 11 10 11 10 10 10 10 10 10 12 12 12 12 11 10 9 9 9 10 10 11 10 10 11 12 12 12 11 10 7
13 11 13 13 14 14 11 10 11 11 11 11 12 12 13 12 11 10 9 9 9 9 9 9 10 10 10 10 11 11 10 10 10 11 12 12 11 10 10 9 9 9 10 10 10 10 10 10 10 10 11 10 9 9
11 11 12 12 13 12 11 11 11 11 12 12 12 12 13 12 11 10 9 9 9 9 9 10 9 9 9 9 9 10 10 9 9 10 10 10 10 9 9 9 9 9 9 9 9 10 11 11 10 11 12 12 10 10
12 12 13 14 13 11 10 12 12 12 12 13 13 11 11 11 12 10 9 8 9 9 9 8 8 8 8 8 8 9 9 9 9 10 10 10 10 9 9 9 9 8 8 9 9 10 11 11 12 11 12 13 12 10
12 12 11 12 13 12 11 11 12 13 12 13 12 12 12 11 12 10 8 7 7 7 7 7 7 8 8 8 8 8 9 9 10 11 11 11 11 11 9 9 9 8 8 9 9 10 11 12 12 13 12 13 12 11